sat.trackr.live / text

‹ back to catalog

IRIDIUM 151

NORAD 43074 · 2017-083E

PAYLOAD ACTIVE UNKNOWN

§ Identity

Operator
Country
US
Launch date
2017-12-23
Launch site
AFWTR
Launch vehicle
Mass (kg)
RCS (m²)

Purposes: comms

External: N2YO · Heavens-Above · Gunter

§ Orbital elements

Epoch: 2026-09-09T15:32:31.125408Z

Period
100.40 min
Inclination
86.3924°
Eccentricity
0.0002059
Mean motion
14.34217644 rev/d
Perigee alt
776.2 km
Apogee alt
779.1 km
Semi-major
7,155.8 km
B*
-4.1188e-6
RAAN
286.7527°
Arg perigee
91.2974°
Mean anomaly
268.8457°
Rev number
45,624

§ Raw data

IRIDIUM 1511 43074U 17083E   26252.64758247  .00000008  00000+0 -41188-5 0  99922 43074  86.3924 286.7527 0002059  91.2974 268.8457 14.34217644456244

JSON: /api/v1/satellites/43074 · /tle

For live sub-satellite position, see the globe view (requires WebGL).

§ Visibility from observer

Set your observer location to see the next 7 days of passes ≥ 10°. The values pass through the URL so the page stays shareable.

No JS? Fill the form by hand. The geolocation button needs JavaScript.